Location: Deuil
(48.9767°N, 2.3272°E)
Time: 23:05:16
(UTC+00:00)

Cosmos 2228 - Pass Details

Date: 02 June 2022
Orbit: 586 x 617 km, 82.5° (Epoch: 03 July)

Event Time Altitude Azimuth Distance (km) Brightness Sun altitude
Rises 00:04:40 0° 4° (N) 2,885 8.2 -18.8°
Reaches altitude 10° 00:07:48 10° 28° (NNE) 1,968 6.6 -18.7°
Maximum altitude 00:10:19 15° 64° (ENE) 1,654 5.6 -18.7°
Drops below altitude 10° 00:12:49 10° 99° (E) 1,948 5.6 -18.7°
Enters shadow 00:14:29 - 115° (ESE) 2,389 5.9 -18.6°
